| time (UTC) | temp F | wind direction | speed knots | gust knots | rain 1hr in | rain 24hr in | rain mn in | humidity % | barometer mb |
| 20260906014716 | 61 | 353 | 0.0 | 0.0 | 0.00 | 0.01 | 0.01 | 92 | 1015.1 |
| 20260906014213 | 61 | 353 | 0.0 | 0.0 | 0.00 | 0.01 | 0.01 | 92 | 1015.1 |
| 20260906013708 | 61 | 353 | 0.0 | 0.0 | 0.00 | 0.01 | 0.01 | 91 | 1015.0 |
| 20260906013208 | 62 | 353 | 0.0 | 0.0 | 0.00 | 0.01 | 0.01 | 90 | 1015.0 |
| 20260906012703 | 62 | 353 | 0.0 | 0.0 | 0.00 | 0.01 | 0.01 | 89 | 1015.0 |
| 20260906012158 | 62 | 353 | 0.0 | 0.0 | 0.00 | 0.01 | 0.01 | 88 | 1015.2 |
| 20260906011654 | 62 | 353 | 0.0 | 0.0 | 0.00 | 0.01 | 0.01 | 87 | 1015.1 |
| 20260906011148 | 63 | 353 | 0.0 | 0.0 | 0.00 | 0.01 | 0.01 | 85 | 1015.0 |
| 20260906010644 | 63 | 353 | 0.0 | 0.0 | 0.00 | 0.01 | 0.01 | 84 | 1015.0 |
| 20260906010140 | 64 | 353 | 0.0 | 0.0 | 0.00 | 0.01 | 0.01 | 83 | 1014.9 |
| 20260906005639 | 64 | 353 | 0.0 | 0.0 | 0.00 | 0.01 | 0.01 | 80 | 1015.0 |
| 20260906005138 | 65 | 353 | 0.0 | 0.0 | 0.00 | 0.01 | 0.01 | 79 | 1015.0 |
| 20260906004638 | 65 | 353 | 0.0 | 0.0 | 0.00 | 0.01 | 0.01 | 78 | 1014.9 |
| 20260906004133 | 66 | 353 | 0.0 | 0.0 | 0.00 | 0.01 | 0.01 | 75 | 1014.8 |
| 20260906003628 | 66 | 38 | 0.0 | 0.9 | 0.00 | 0.01 | 0.01 | 74 | 1014.8 |
| 20260906003124 | 66 | 39 | 0.0 | 0.9 | 0.00 | 0.01 | 0.01 | 73 | 1014.7 |
| 20260906002619 | 67 | 39 | 0.0 | 0.0 | 0.00 | 0.01 | 0.01 | 72 | 1014.8 |
| 20260906002113 | 67 | 39 | 0.0 | 0.0 | 0.00 | 0.01 | 0.01 | 72 | 1014.7 |
| 20260906001608 | 68 | 39 | 0.0 | 0.9 | 0.00 | 0.01 | 0.01 | 68 | 1014.7 |
| 20260906001103 | 69 | 39 | 0.9 | 0.9 | 0.00 | 0.01 | 0.01 | 66 | 1014.7 |
| 20260906000559 | 69 | 39 | 0.9 | 3.5 | 0.00 | 0.01 | 0.01 | 65 | 1014.5 |
| 20260906000054 | 69 | 32 | 0.9 | 3.5 | 0.00 | 0.01 | 0.01 | 63 | 1014.7 |
| 20260905235553 | 70 | 358 | 4.3 | 4.3 | 0.00 | 0.01 | 0.01 | 63 | 1014.6 |
| 20260905235048 | 70 | 28 | 2.6 | 3.5 | 0.00 | 0.01 | 0.01 | 62 | 1014.5 |
| 20260905234544 | 70 | 343 | 1.7 | 3.5 | 0.00 | 0.01 | 0.01 | 62 | 1014.4 |
| 20260905234039 | 71 | 18 | 4.3 | 10.4 | 0.00 | 0.01 | 0.01 | 62 | 1014.6 |
| 20260905233538 | 71 | 34 | 2.6 | 4.3 | 0.00 | 0.01 | 0.01 | 63 | 1014.4 |
| 20260905233038 | 71 | 26 | 1.7 | 8.7 | 0.00 | 0.01 | 0.01 | 65 | 1014.4 |
| 20260905232534 | 71 | 30 | 4.3 | 6.1 | 0.00 | 0.01 | 0.01 | 67 | 1014.3 |
| 20260905232029 | 72 | 14 | 1.7 | 3.5 | 0.00 | 0.01 | 0.01 | 67 | 1014.2 |
| 20260905231524 | 72 | 50 | 0.9 | 4.3 | 0.00 | 0.01 | 0.01 | 67 | 1014.2 |
| 20260905231021 | 73 | 65 | 2.6 | 7.0 | 0.00 | 0.01 | 0.01 | 66 | 1014.1 |
| 20260905230520 | 73 | 61 | 7.8 | 9.6 | 0.00 | 0.01 | 0.01 | 65 | 1014.2 |
| 20260905230018 | 74 | 18 | 2.6 | 6.1 | 0.00 | 0.01 | 0.01 | 66 | 1014.0 |
| 20260905225513 | 74 | 40 | 7.0 | 9.6 | 0.00 | 0.01 | 0.01 | 65 | 1014.0 |
| 20260905225009 | 74 | 31 | 4.3 | 8.7 | 0.00 | 0.01 | 0.01 | 65 | 1014.0 |
| 20260905224504 | 74 | 56 | 3.5 | 7.0 | 0.00 | 0.01 | 0.01 | 66 | 1013.7 |
| 20260905224003 | 75 | 10 | 4.3 | 4.3 | 0.00 | 0.01 | 0.01 | 69 | 1013.7 |
| 20260905223501 | 75 | 42 | 4.3 | 6.1 | 0.00 | 0.01 | 0.01 | 69 | 1013.8 |
| 20260905222956 | 75 | 20 | 3.5 | 7.0 | 0.00 | 0.01 | 0.01 | 68 | 1013.7 |
| 20260905222456 | 75 | 344 | 3.5 | 4.3 | 0.00 | 0.01 | 0.01 | 69 | 1013.5 |
| 20260905221951 | 75 | 11 | 0.9 | 3.5 | 0.00 | 0.01 | 0.01 | 70 | 1013.7 |
| 20260905221447 | 75 | 347 | 2.6 | 4.3 | 0.00 | 0.01 | 0.01 | 71 | 1013.5 |
| 20260905220943 | 75 | 18 | 3.5 | 4.3 | 0.00 | 0.01 | 0.01 | 71 | 1013.5 |
| 20260905220439 | 75 | 52 | 4.3 | 7.0 | 0.00 | 0.01 | 0.01 | 70 | 1013.5 |
| 20260905215938 | 76 | 2 | 7.8 | 12.2 | 0.00 | 0.01 | 0.01 | 69 | 1013.3 |
| 20260905215434 | 76 | 6 | 6.1 | 8.7 | 0.00 | 0.01 | 0.01 | 71 | 1013.4 |
| 20260905214930 | 76 | 352 | 3.5 | 3.5 | 0.00 | 0.01 | 0.01 | 71 | 1013.3 |
| 20260905214426 | 77 | 35 | 2.6 | 4.3 | 0.00 | 0.01 | 0.01 | 70 | 1013.3 |
| 20260905213926 | 77 | 5 | 4.3 | 7.0 | 0.00 | 0.01 | 0.01 | 69 | 1013.2 |
| 20260905213422 | 77 | 70 | 0.9 | 8.7 | 0.00 | 0.01 | 0.01 | 70 | 1013.4 |
| 20260905212917 | 77 | 23 | 1.7 | 6.1 | 0.00 | 0.01 | 0.01 | 72 | 1013.1 |
| 20260905212412 | 76 | 31 | 3.5 | 6.1 | 0.00 | 0.01 | 0.01 | 72 | 1013.2 |
| 20260905211911 | 76 | 2 | 5.2 | 6.1 | 0.00 | 0.01 | 0.01 | 72 | 1013.2 |
| 20260905211407 | 76 | 43 | 4.3 | 8.7 | 0.00 | 0.01 | 0.01 | 72 | 1013.3 |
| 20260905210903 | 77 | 33 | 2.6 | 6.1 | 0.00 | 0.01 | 0.01 | 72 | 1013.2 |
| 20260905210357 | 77 | 24 | 1.7 | 2.6 | 0.00 | 0.01 | 0.01 | 72 | 1013.1 |
| 20260905205856 | 76 | 354 | 1.7 | 3.5 | 0.00 | 0.01 | 0.01 | 73 | 1013.1 |
| 20260905205351 | 76 | 37 | 1.7 | 4.3 | 0.00 | 0.01 | 0.01 | 73 | 1013.2 |
| 20260905204850 | 76 | 10 | 4.3 | 4.3 | 0.00 | 0.01 | 0.01 | 72 | 1013.2 |
| 20260905204347 | 76 | 4 | 3.5 | 4.3 | 0.00 | 0.01 | 0.01 | 72 | 1013.2 |
| 20260905203845 | 77 | 26 | 5.2 | 8.7 | 0.00 | 0.01 | 0.01 | 71 | 1013.3 |
| 20260905203341 | 78 | 84 | 2.6 | 3.5 | 0.00 | 0.01 | 0.01 | 70 | 1013.4 |
| 20260905202837 | 78 | 43 | 0.9 | 2.6 | 0.00 | 0.01 | 0.01 | 71 | 1013.4 |
| 20260905202331 | 78 | 74 | 1.7 | 3.5 | 0.00 | 0.01 | 0.01 | 72 | 1013.4 |
| 20260905201827 | 77 | 355 | 6.1 | 7.0 | 0.00 | 0.01 | 0.01 | 72 | 1013.3 |
| 20260905201323 | 77 | 44 | 1.7 | 6.1 | 0.00 | 0.01 | 0.01 | 71 | 1013.2 |
| 20260905200822 | 77 | 15 | 4.3 | 6.1 | 0.00 | 0.01 | 0.01 | 70 | 1013.4 |
| 20260905200318 | 77 | 35 | 4.3 | 6.1 | 0.00 | 0.01 | 0.01 | 69 | 1013.4 |
| 20260905195816 | 77 | 330 | 3.5 | 4.3 | 0.00 | 0.01 | 0.01 | 72 | 1013.3 |
| 20260905195311 | 77 | 52 | 2.6 | 3.5 | 0.00 | 0.01 | 0.01 | 69 | 1013.4 |
| 20260905194807 | 77 | 358 | 4.3 | 8.7 | 0.00 | 0.01 | 0.01 | 71 | 1013.5 |
| 20260905194301 | 77 | 31 | 2.6 | 4.3 | 0.00 | 0.01 | 0.01 | 72 | 1013.5 |
| 20260905193800 | 77 | 349 | 3.5 | 6.1 | 0.00 | 0.01 | 0.01 | 71 | 1013.7 |
| 20260905193255 | 77 | 23 | 4.3 | 6.1 | 0.00 | 0.01 | 0.01 | 71 | 1013.5 |
| 20260905192751 | 77 | 355 | 7.0 | 7.0 | 0.00 | 0.01 | 0.01 | 72 | 1013.4 |
| 20260905192247 | 77 | 328 | 5.2 | 7.0 | 0.00 | 0.01 | 0.01 | 72 | 1013.5 |
| 20260905191747 | 77 | 47 | 3.5 | 4.3 | 0.00 | 0.01 | 0.01 | 73 | 1013.7 |
| 20260905191245 | 76 | 38 | 3.5 | 4.3 | 0.00 | 0.01 | 0.01 | 74 | 1013.7 |
| 20260905190743 | 77 | 45 | 3.5 | 7.0 | 0.00 | 0.01 | 0.01 | 73 | 1013.8 |
| 20260905190243 | 77 | 43 | 4.3 | 7.0 | 0.00 | 0.01 | 0.01 | 72 | 1013.9 |
| 20260905185742 | 77 | 59 | 1.7 | 2.6 | 0.00 | 0.01 | 0.01 | 72 | 1013.8 |
| 20260905185237 | 77 | 3 | 2.6 | 3.5 | 0.00 | 0.01 | 0.01 | 73 | 1014.0 |
| 20260905184731 | 77 | 47 | 6.1 | 6.1 | 0.00 | 0.01 | 0.01 | 73 | 1014.0 |
| 20260905184230 | 77 | 9 | 7.8 | 8.7 | 0.00 | 0.01 | 0.01 | 72 | 1014.0 |
| 20260905183729 | 77 | 8 | 7.0 | 9.6 | 0.00 | 0.01 | 0.01 | 72 | 1014.1 |
| 20260905183225 | 77 | 33 | 4.3 | 9.6 | 0.00 | 0.01 | 0.01 | 75 | 1014.1 |
| 20260905182725 | 77 | 74 | 0.9 | 3.5 | 0.00 | 0.01 | 0.01 | 74 | 1013.9 |
| 20260905182224 | 77 | 61 | 2.6 | 4.3 | 0.00 | 0.01 | 0.01 | 73 | 1013.9 |
| 20260905181720 | 77 | 34 | 3.5 | 3.5 | 0.00 | 0.01 | 0.01 | 75 | 1014.0 |
| 20260905181218 | 76 | 67 | 1.7 | 4.3 | 0.00 | 0.01 | 0.01 | 76 | 1014.0 |
| 20260905180713 | 75 | 6 | 7.0 | 8.7 | 0.00 | 0.01 | 0.01 | 77 | 1014.0 |
| 20260905180209 | 76 | 359 | 5.2 | 8.7 | 0.00 | 0.01 | 0.01 | 77 | 1014.3 |
| 20260905175708 | 76 | 357 | 9.6 | 9.6 | 0.00 | 0.01 | 0.01 | 78 | 1014.2 |
| 20260905175203 | 76 | 35 | 4.3 | 7.0 | 0.00 | 0.01 | 0.01 | 78 | 1014.2 |
| 20260905174658 | 76 | 5 | 6.1 | 7.0 | 0.00 | 0.01 | 0.01 | 75 | 1014.1 |
| 20260905174154 | 75 | 355 | 3.5 | 6.1 | 0.00 | 0.01 | 0.01 | 79 | 1014.3 |
| 20260905173650 | 75 | 59 | 6.1 | 8.7 | 0.00 | 0.01 | 0.01 | 78 | 1014.4 |
| 20260905173145 | 75 | 26 | 6.1 | 9.6 | 0.00 | 0.01 | 0.01 | 79 | 1014.2 |
| 20260905172645 | 75 | 30 | 5.2 | 6.1 | 0.00 | 0.01 | 0.01 | 79 | 1014.5 |
| 20260905172139 | 75 | 42 | 1.7 | 3.5 | 0.00 | 0.01 | 0.01 | 80 | 1014.3 |
| 20260905171635 | 75 | 33 | 2.6 | 6.1 | 0.00 | 0.01 | 0.01 | 81 | 1014.4 |
| 20260905171131 | 75 | 46 | 2.6 | 4.3 | 0.00 | 0.01 | 0.01 | 80 | 1014.4 |
| 20260905170627 | 75 | 81 | 1.7 | 7.0 | 0.00 | 0.01 | 0.01 | 81 | 1014.3 |
| 20260905170123 | 76 | 45 | 5.2 | 7.0 | 0.00 | 0.01 | 0.01 | 79 | 1014.6 |
| 20260905165617 | 75 | 41 | 0.9 | 3.5 | 0.00 | 0.01 | 0.01 | 80 | 1014.3 |
| 20260905165112 | 75 | 52 | 4.3 | 6.1 | 0.00 | 0.01 | 0.01 | 82 | 1014.4 |
| 20260905164607 | 75 | 34 | 4.3 | 7.0 | 0.00 | 0.01 | 0.01 | 80 | 1014.5 |
| 20260905164101 | 75 | 40 | 2.6 | 3.5 | 0.00 | 0.01 | 0.01 | 79 | 1014.6 |
| 20260905163552 | 75 | 24 | 2.6 | 4.3 | 0.00 | 0.01 | 0.01 | 79 | 1014.5 |
| 20260905163048 | 75 | 47 | 1.7 | 3.5 | 0.00 | 0.01 | 0.01 | 81 | 1014.6 |
| 20260905162544 | 75 | 19 | 1.7 | 2.6 | 0.00 | 0.01 | 0.01 | 81 | 1014.6 |
| 20260905162043 | 75 | 11 | 2.6 | 4.3 | 0.00 | 0.01 | 0.01 | 80 | 1014.6 |
| 20260905161543 | 75 | 4 | 6.1 | 7.0 | 0.00 | 0.01 | 0.01 | 79 | 1014.6 |
| 20260905161041 | 75 | 1 | 4.3 | 6.1 | 0.00 | 0.01 | 0.01 | 81 | 1014.6 |
| 20260905160539 | 75 | 23 | 2.6 | 4.3 | 0.00 | 0.01 | 0.01 | 80 | 1014.6 |
| 20260905160034 | 75 | 89 | 1.7 | 6.1 | 0.00 | 0.01 | 0.01 | 80 | 1014.7 |
| 20260905155534 | 75 | 95 | 2.6 | 3.5 | 0.00 | 0.01 | 0.01 | 80 | 1014.8 |
| 20260905155033 | 75 | 37 | 2.6 | 4.3 | 0.00 | 0.01 | 0.01 | 80 | 1014.8 |
| 20260905154528 | 75 | 351 | 3.5 | 4.3 | 0.00 | 0.01 | 0.01 | 82 | 1014.6 |
| 20260905154024 | 75 | 8 | 3.5 | 3.5 | 0.00 | 0.01 | 0.01 | 83 | 1014.7 |
| 20260905153520 | 75 | 31 | 4.3 | 4.3 | 0.00 | 0.01 | 0.01 | 82 | 1014.8 |
| 20260905153019 | 75 | 6 | 1.7 | 2.6 | 0.00 | 0.01 | 0.01 | 82 | 1014.9 |
| 20260905152519 | 75 | 59 | 0.9 | 2.6 | 0.00 | 0.01 | 0.01 | 82 | 1014.7 |
| 20260905152015 | 75 | 0 | 0.9 | 2.6 | 0.00 | 0.01 | 0.01 | 84 | 1014.5 |
| 20260905151510 | 75 | 34 | 1.7 | 2.6 | 0.00 | 0.01 | 0.01 | 83 | 1014.4 |
| 20260905151005 | 75 | 34 | 1.7 | 0.9 | 0.00 | 0.01 | 0.01 | 84 | 1014.5 |
| 20260905150500 | 75 | 34 | 0.0 | 0.9 | 0.00 | 0.01 | 0.01 | 83 | 1014.3 |
| 20260905145956 | 75 | 33 | 0.0 | 0.0 | 0.00 | 0.01 | 0.01 | 83 | 1014.5 |
| 20260905145451 | 75 | 12 | 0.0 | 0.0 | 0.00 | 0.01 | 0.01 | 84 | 1014.3 |
| 20260905144950 | 74 | 12 | 0.0 | 0.9 | 0.00 | 0.01 | 0.01 | 84 | 1014.3 |
| 20260905144446 | 74 | 11 | 0.0 | 0.9 | 0.00 | 0.01 | 0.01 | 86 | 1014.3 |
| 20260905143945 | 74 | 51 | 0.9 | 0.9 | 0.00 | 0.01 | 0.01 | 86 | 1014.1 |
| 20260905143444 | 74 | 69 | 1.7 | 0.9 | 0.00 | 0.01 | 0.01 | 87 | 1014.1 |
| 20260905142939 | 73 | 40 | 0.9 | 2.6 | 0.00 | 0.01 | 0.01 | 89 | 1014.1 |
| 20260905142438 | 73 | 22 | 2.6 | 3.5 | 0.00 | 0.01 | 0.01 | 89 | 1014.3 |
| 20260905141933 | 73 | 37 | 0.9 | 0.9 | 0.00 | 0.01 | 0.01 | 91 | 1014.1 |
| 20260905141428 | 72 | 37 | 1.7 | 2.6 | 0.00 | 0.01 | 0.01 | 93 | 1014.1 |
| 20260905140924 | 71 | 33 | 2.6 | 2.6 | 0.00 | 0.01 | 0.01 | 97 | 1014.1 |
| 20260905140420 | 71 | 69 | 1.7 | 2.6 | 0.00 | 0.01 | 0.01 | 99 | 1014.0 |
| 20260905135918 | 70 | 27 | 2.6 | 2.6 | 0.00 | 0.01 | 0.01 | 99 | 1014.0 |
| 20260905135414 | 70 | 23 | 0.9 | 2.6 | 0.00 | 0.01 | 0.01 | 99 | 1014.1 |
| 20260905134909 | 70 | 13 | 2.6 | 4.3 | 0.00 | 0.01 | 0.01 | 99 | 1014.1 |
| 20260905134408 | 70 | 23 | 2.6 | 3.5 | 0.00 | 0.01 | 0.01 | 99 | 1014.0 |
| 20260905133903 | 69 | 22 | 2.6 | 2.6 | 0.00 | 0.01 | 0.01 | 99 | 1014.1 |
| 20260905133358 | 69 | 23 | 0.9 | 0.9 | 0.00 | 0.01 | 0.01 | 99 | 1014.3 |
| 20260905132857 | 69 | 22 | 0.9 | 0.9 | 0.00 | 0.01 | 0.01 | 99 | 1014.4 |
| 20260905132352 | 69 | 22 | 0.0 | 0.0 | 0.00 | 0.01 | 0.01 | 99 | 1014.2 |
| 20260905131846 | 69 | 22 | 0.0 | 0.0 | 0.00 | 0.01 | 0.01 | 99 | 1014.4 |
| 20260905131342 | 69 | 22 | 0.9 | 0.9 | 0.00 | 0.01 | 0.01 | 99 | 1014.6 |
| 20260905130837 | 69 | 23 | 0.0 | 0.0 | 0.00 | 0.01 | 0.01 | 99 | 1014.8 |
| 20260905130336 | 69 | 22 | 0.0 | 0.0 | 0.00 | 0.01 | 0.01 | 99 | 1014.5 |
| 20260905125831 | 69 | 22 | 0.0 | 0.0 | 0.00 | 0.01 | 0.01 | 99 | 1014.6 |
| 20260905125326 | 69 | 23 | 0.0 | 0.0 | 0.00 | 0.01 | 0.01 | 99 | 1014.5 |
| 20260905124822 | 69 | 23 | 0.9 | 0.9 | 0.00 | 0.01 | 0.01 | 99 | 1014.6 |
| 20260905124318 | 69 | 21 | 1.7 | 0.9 | 0.00 | 0.01 | 0.01 | 99 | 1014.6 |
| 20260905123813 | 68 | 15 | 0.0 | 0.0 | 0.00 | 0.01 | 0.01 | 99 | 1014.6 |
| 20260905123310 | 68 | 15 | 0.0 | 0.0 | 0.00 | 0.01 | 0.01 | 99 | 1014.5 |
| 20260905122809 | 68 | 15 | 0.0 | 0.0 | 0.00 | 0.01 | 0.01 | 99 | 1014.6 |
| 20260905122309 | 68 | 15 | 0.0 | 0.0 | 0.00 | 0.01 | 0.01 | 99 | 1014.7 |
| 20260905121805 | 68 | 15 | 0.0 | 0.0 | 0.00 | 0.01 | 0.01 | 99 | 1014.6 |
| 20260905121301 | 68 | 15 | 0.0 | 0.9 | 0.00 | 0.01 | 0.01 | 99 | 1014.5 |
| 20260905120759 | 68 | 14 | 0.0 | 0.9 | 0.00 | 0.01 | 0.01 | 99 | 1014.5 |
| 20260905120300 | 68 | 14 | 0.0 | 0.0 | 0.00 | 0.01 | 0.01 | 99 | 1014.5 |
| 20260905115754 | 68 | 14 | 0.0 | 0.9 | 0.00 | 0.01 | 0.01 | 99 | 1014.5 |
| 20260905115249 | 68 | 15 | 0.0 | 0.0 | 0.00 | 0.01 | 0.01 | 99 | 1014.2 |
| 20260905114748 | 67 | 15 | 0.0 | 0.9 | 0.00 | 0.01 | 0.01 | 99 | 1014.4 |
| 20260905114247 | 67 | 343 | 0.0 | 0.0 | 0.00 | 0.01 | 0.01 | 99 | 1014.2 |
| 20260905113746 | 67 | 343 | 0.0 | 0.0 | 0.00 | 0.01 | 0.01 | 99 | 1014.3 |
| 20260905113243 | 67 | 343 | 0.0 | 0.9 | 0.00 | 0.01 | 0.01 | 99 | 1014.3 |
| 20260905112737 | 67 | 343 | 0.0 | 0.9 | 0.00 | 0.01 | 0.01 | 99 | 1014.0 |
| 20260905112232 | 67 | 343 | 0.0 | 0.0 | 0.00 | 0.01 | 0.01 | 99 | 1013.9 |
| 20260905111727 | 67 | 343 | 0.9 | 0.9 | 0.00 | 0.01 | 0.01 | 99 | 1014.1 |
| 20260905111221 | 67 | 342 | 0.0 | 0.9 | 0.00 | 0.01 | 0.01 | 99 | 1014.1 |
| 20260905110720 | 67 | 342 | 0.0 | 0.0 | 0.00 | 0.01 | 0.01 | 99 | 1014.2 |
| 20260905110215 | 67 | 341 | 0.9 | 0.9 | 0.00 | 0.01 | 0.01 | 99 | 1014.1 |
| 20260905105711 | 67 | 341 | 0.0 | 0.0 | 0.00 | 0.01 | 0.01 | 99 | 1014.0 |
| 20260905105209 | 67 | 341 | 0.0 | 0.0 | 0.00 | 0.01 | 0.01 | 99 | 1014.2 |
| 20260905104704 | 67 | 341 | 0.0 | 0.0 | 0.00 | 0.01 | 0.01 | 99 | 1014.2 |
| 20260905104200 | 67 | 341 | 0.0 | 0.0 | 0.05 | 0.01 | 0.01 | 99 | 1014.5 |
| 20260905103655 | 67 | 341 | 0.0 | 0.0 | 0.05 | 0.01 | 0.01 | 99 | 1014.5 |
| 20260905103151 | 67 | 339 | 0.9 | 0.9 | 0.00 | 0.00 | 0.00 | 99 | 1014.6 |
| 20260905102646 | 67 | 338 | 0.0 | 0.0 | 0.00 | 0.00 | 0.00 | 99 | 1014.7 |
| 20260905102143 | 67 | 338 | 0.0 | 0.0 | 0.00 | 0.00 | 0.00 | 99 | 1014.6 |
| 20260905101641 | 67 | 338 | 0.0 | 0.0 | 0.00 | 0.00 | 0.00 | 99 | 1014.7 |
| 20260905101140 | 67 | 338 | 0.0 | 0.0 | 0.00 | 0.00 | 0.00 | 99 | 1014.5 |
| 20260905100636 | 67 | 337 | 0.0 | 0.9 | 0.00 | 0.00 | 0.00 | 99 | 1014.5 |
| 20260905100131 | 67 | 30 | 0.9 | 0.9 | 0.00 | 0.00 | 0.00 | 99 | 1014.3 |
| 20260905095624 | 67 | 30 | 0.0 | 0.0 | 0.00 | 0.00 | 0.00 | 99 | 1014.1 |
| 20260905095120 | 67 | 30 | 0.9 | 0.9 | 0.00 | 0.00 | 0.00 | 99 | 1013.9 |
| 20260905094615 | 68 | 30 | 0.0 | 0.9 | 0.00 | 0.00 | 0.00 | 99 | 1014.0 |
| 20260905094114 | 68 | 30 | 0.0 | 0.0 | 0.00 | 0.00 | 0.00 | 99 | 1013.9 |
| 20260905093614 | 68 | 30 | 0.0 | 0.0 | 0.00 | 0.00 | 0.00 | 99 | 1013.9 |
| 20260905093111 | 68 | 30 | 0.0 | 0.0 | 0.00 | 0.00 | 0.00 | 99 | 1013.9 |
| 20260905092610 | 68 | 30 | 0.9 | 0.9 | 0.00 | 0.00 | 0.00 | 99 | 1013.7 |
| 20260905092107 | 67 | 30 | 0.0 | 0.0 | 0.00 | 0.00 | 0.00 | 99 | 1013.5 |
| 20260905091606 | 67 | 30 | 0.0 | 0.9 | 0.00 | 0.00 | 0.00 | 99 | 1013.4 |
| 20260905091100 | 67 | 30 | 0.0 | 0.0 | 0.00 | 0.00 | 0.00 | 99 | 1013.2 |
| 20260905090554 | 67 | 30 | 0.9 | 0.9 | 0.00 | 0.00 | 0.00 | 99 | 1013.5 |
| 20260905090050 | 67 | 30 | 0.0 | 0.0 | 0.00 | 0.00 | 0.00 | 99 | 1013.7 |
| 20260905085548 | 67 | 30 | 0.0 | 0.0 | 0.00 | 0.00 | 0.00 | 99 | 1013.8 |
| 20260905085044 | 67 | 30 | 0.0 | 0.0 | 0.00 | 0.00 | 0.00 | 99 | 1013.8 |
| 20260905084543 | 67 | 30 | 0.0 | 0.0 | 0.00 | 0.00 | 0.00 | 99 | 1013.4 |
| 20260905084039 | 67 | 30 | 0.0 | 0.0 | 0.00 | 0.00 | 0.00 | 99 | 1013.5 |
| 20260905083533 | 66 | 30 | 0.0 | 0.9 | 0.00 | 0.00 | 0.00 | 99 | 1013.0 |
| 20260905083030 | 66 | 30 | 0.0 | 0.0 | 0.00 | 0.00 | 0.00 | 99 | 1013.2 |
| 20260905082525 | 66 | 30 | 0.9 | 0.9 | 0.00 | 0.00 | 0.00 | 99 | 1013.0 |
| 20260905082021 | 66 | 30 | 0.0 | 0.0 | 0.00 | 0.00 | 0.00 | 99 | 1012.9 |
| 20260905081515 | 66 | 30 | 0.9 | 0.9 | 0.00 | 0.00 | 0.00 | 99 | 1012.9 |
| 20260905081015 | 65 | 30 | 0.0 | 0.0 | 0.00 | 0.00 | 0.00 | 99 | 1013.3 |
| 20260905080509 | 65 | 30 | 0.0 | 0.0 | 0.00 | 0.00 | 0.00 | 99 | 1013.4 |
| 20260905080004 | 65 | 30 | 0.0 | 0.0 | 0.00 | 0.00 | 0.00 | 99 | 1013.4 |
| 20260905075457 | 65 | 30 | 0.0 | 0.0 | 0.00 | 0.00 | 0.00 | 99 | 1013.3 |
| 20260905074955 | 65 | 30 | 0.0 | 0.0 | 0.00 | 0.00 | 0.00 | 99 | 1013.3 |
| 20260905074452 | 66 | 30 | 0.0 | 0.0 | 0.00 | 0.00 | 0.00 | 99 | 1013.2 |
| 20260905073947 | 66 | 30 | 0.0 | 0.0 | 0.00 | 0.00 | 0.00 | 99 | 1013.4 |
| 20260905073442 | 66 | 30 | 0.0 | 0.0 | 0.00 | 0.00 | 0.00 | 99 | 1013.4 |
| 20260905072938 | 66 | 30 | 0.0 | 0.0 | 0.00 | 0.00 | 0.00 | 99 | 1013.2 |
| 20260905072432 | 66 | 30 | 0.0 | 0.0 | 0.00 | 0.00 | 0.00 | 99 | 1013.3 |
| 20260905071928 | 66 | 30 | 0.0 | 0.0 | 0.00 | 0.00 | 0.00 | 99 | 1013.5 |
| 20260905071426 | 66 | 30 | 0.0 | 0.0 | 0.00 | 0.00 | 0.00 | 99 | 1013.5 |
| 20260905070924 | 66 | 30 | 0.0 | 0.0 | 0.00 | 0.00 | 0.00 | 99 | 1013.5 |
| 20260905070421 | 66 | 30 | 0.0 | 0.0 | 0.00 | 0.00 | 0.00 | 99 | 1013.2 |
| 20260905065920 | 66 | 30 | 0.0 | 0.0 | 0.00 | 0.00 | 0.00 | 99 | 1013.4 |
| 20260905065418 | 66 | 30 | 0.0 | 0.0 | 0.00 | 0.00 | 0.00 | 99 | 1013.7 |
| 20260905064914 | 66 | 30 | 0.0 | 0.0 | 0.00 | 0.00 | 0.00 | 99 | 1013.7 |
| 20260905064409 | 67 | 30 | 0.0 | 0.0 | 0.00 | 0.00 | 0.00 | 99 | 1013.7 |
| 20260905063908 | 67 | 30 | 0.0 | 0.0 | 0.00 | 0.00 | 0.00 | 99 | 1013.9 |
| 20260905063404 | 67 | 30 | 0.0 | 0.0 | 0.00 | 0.00 | 0.00 | 99 | 1014.0 |
| 20260905062900 | 67 | 30 | 0.0 | 0.9 | 0.00 | 0.00 | 0.00 | 99 | 1014.0 |
| 20260905062354 | 67 | 30 | 0.9 | 0.9 | 0.00 | 0.00 | 0.00 | 99 | 1014.1 |
| 20260905061849 | 67 | 30 | 0.0 | 0.0 | 0.00 | 0.00 | 0.00 | 99 | 1014.1 |
| 20260905061343 | 67 | 30 | 0.0 | 0.0 | 0.00 | 0.00 | 0.00 | 99 | 1014.1 |
| 20260905060838 | 67 | 30 | 0.0 | 0.0 | 0.00 | 0.00 | 0.00 | 99 | 1014.1 |
| 20260905060335 | 67 | 30 | 0.0 | 0.9 | 0.00 | 0.00 | 0.00 | 99 | 1014.3 |
| 20260905055833 | 67 | 30 | 0.0 | 0.0 | 0.00 | 0.00 | 0.00 | 99 | 1014.3 |
| 20260905055328 | 67 | 30 | 0.0 | 0.0 | 0.00 | 0.00 | 0.00 | 99 | 1014.4 |
| 20260905054828 | 67 | 30 | 0.0 | 0.0 | 0.00 | 0.00 | 0.00 | 99 | 1014.7 |
| 20260905054325 | 67 | 30 | 0.0 | 0.0 | 0.00 | 0.00 | 0.00 | 99 | 1014.7 |
| 20260905053824 | 67 | 30 | 0.0 | 0.0 | 0.00 | 0.00 | 0.00 | 99 | 1014.5 |
| 20260905053319 | 67 | 30 | 0.0 | 0.0 | 0.00 | 0.00 | 0.00 | 99 | 1014.6 |
| 20260905052814 | 67 | 30 | 0.0 | 0.0 | 0.00 | 0.00 | 0.00 | 99 | 1014.7 |
| 20260905052313 | 67 | 30 | 0.9 | 0.9 | 0.00 | 0.00 | 0.00 | 99 | 1014.8 |
| 20260905051808 | 67 | 30 | 0.0 | 0.0 | 0.00 | 0.00 | 0.00 | 99 | 1014.7 |
| 20260905051304 | 67 | 30 | 0.0 | 0.0 | 0.00 | 0.00 | 0.00 | 99 | 1014.7 |
| 20260905050801 | 67 | 30 | 0.0 | 0.0 | 0.00 | 0.00 | 0.00 | 99 | 1014.5 |
| 20260905050256 | 68 | 30 | 0.0 | 0.0 | 0.00 | 0.00 | 0.00 | 99 | 1014.5 |
| 20260905045751 | 68 | 30 | 0.0 | 0.0 | 0.00 | 0.00 | 0.00 | 99 | 1014.7 |
| 20260905045247 | 67 | 30 | 0.0 | 0.0 | 0.00 | 0.00 | 0.00 | 99 | 1014.6 |
| 20260905044742 | 67 | 30 | 0.0 | 0.0 | 0.00 | 0.00 | 0.00 | 99 | 1014.7 |
| 20260905044237 | 67 | 30 | 0.0 | 0.0 | 0.00 | 0.00 | 0.00 | 99 | 1014.6 |
| 20260905043736 | 67 | 30 | 0.0 | 0.0 | 0.00 | 0.00 | 0.00 | 99 | 1014.6 |
| 20260905043235 | 67 | 30 | 0.0 | 0.0 | 0.00 | 0.00 | 0.00 | 99 | 1014.8 |
| 20260905042731 | 67 | 30 | 0.0 | 0.0 | 0.00 | 0.00 | 0.00 | 99 | 1014.8 |
| 20260905042229 | 67 | 30 | 0.0 | 0.0 | 0.00 | 0.00 | 0.00 | 99 | 1014.7 |
| 20260905041726 | 67 | 30 | 0.0 | 0.0 | 0.00 | 0.00 | 0.00 | 99 | 1014.6 |
| 20260905041221 | 67 | 30 | 0.0 | 0.0 | 0.00 | 0.00 | 0.00 | 99 | 1014.6 |
| 20260905040716 | 67 | 30 | 0.0 | 0.0 | 0.00 | 0.00 | 0.00 | 99 | 1014.7 |
| 20260905040214 | 67 | 30 | 0.0 | 0.0 | 0.00 | 0.00 | 0.00 | 99 | 1014.7 |
| 20260905035709 | 67 | 30 | 0.0 | 0.0 | 0.00 | 0.09 | 0.09 | 99 | 1014.6 |
| 20260905035206 | 67 | 30 | 0.0 | 0.0 | 0.00 | 0.09 | 0.09 | 99 | 1014.8 |
| 20260905034702 | 67 | 30 | 0.9 | 0.0 | 0.00 | 0.09 | 0.09 | 98 | 1014.7 |
| 20260905034201 | 68 | 30 | 0.0 | 0.0 | 0.00 | 0.09 | 0.09 | 98 | 1014.7 |
| 20260905033700 | 68 | 30 | 0.0 | 0.0 | 0.00 | 0.09 | 0.09 | 98 | 1014.6 |
| 20260905033156 | 68 | 30 | 0.0 | 0.0 | 0.00 | 0.09 | 0.09 | 98 | 1014.6 |
| 20260905032655 | 68 | 30 | 0.0 | 0.0 | 0.00 | 0.09 | 0.09 | 98 | 1014.4 |
| 20260905032156 | 68 | 30 | 0.0 | 0.0 | 0.00 | 0.09 | 0.09 | 98 | 1014.7 |
| 20260905031652 | 68 | 30 | 0.0 | 0.0 | 0.00 | 0.09 | 0.09 | 98 | 1014.7 |
| 20260905031147 | 68 | 30 | 0.0 | 0.0 | 0.00 | 0.09 | 0.09 | 98 | 1014.6 |
| 20260905030642 | 68 | 30 | 0.0 | 0.0 | 0.00 | 0.09 | 0.09 | 98 | 1014.7 |
| 20260905030137 | 68 | 30 | 0.0 | 0.0 | 0.00 | 0.09 | 0.09 | 98 | 1014.6 |
| 20260905025632 | 68 | 30 | 0.0 | 0.0 | 0.00 | 0.09 | 0.09 | 98 | 1014.7 |
| 20260905025128 | 68 | 30 | 0.0 | 0.0 | 0.00 | 0.09 | 0.09 | 98 | 1014.8 |
| 20260905024623 | 68 | 30 | 0.0 | 0.0 | 0.00 | 0.09 | 0.09 | 98 | 1014.7 |
| 20260905024119 | 68 | 30 | 0.0 | 0.0 | 0.00 | 0.09 | 0.09 | 98 | 1014.8 |
| 20260905023614 | 69 | 30 | 0.0 | 0.0 | 0.00 | 0.09 | 0.09 | 98 | 1014.8 |
| 20260905023108 | 69 | 30 | 0.0 | 0.0 | 0.00 | 0.09 | 0.09 | 98 | 1014.9 |
| 20260905022607 | 69 | 30 | 0.0 | 0.0 | 0.00 | 0.09 | 0.09 | 98 | 1014.8 |
| 20260905022103 | 69 | 30 | 0.0 | 0.0 | 0.00 | 0.09 | 0.09 | 98 | 1014.9 |
| 20260905021602 | 69 | 30 | 0.0 | 0.0 | 0.00 | 0.09 | 0.09 | 98 | 1014.9 |
| 20260905021058 | 69 | 30 | 0.0 | 0.0 | 0.00 | 0.09 | 0.09 | 98 | 1015.0 |
| 20260905020557 | 69 | 30 | 0.0 | 0.0 | 0.00 | 0.09 | 0.09 | 98 | 1015.0 |
| 20260905020053 | 69 | 30 | 0.0 | 0.0 | 0.00 | 0.09 | 0.09 | 98 | 1015.0 |
| 20260905015550 | 69 | 30 | 0.0 | 0.0 | 0.00 | 0.09 | 0.09 | 98 | 1015.0 |